Starlink 3626

operational
NORAD ID: 51792 Int'l Des: 2022-017 Owner: SPXS Country: US Constellation: starlink
LEOCIRCULAR

Starlink 3626について

説明を読み込み中...

リアルタイム位置

3D地球を読み込み中...

次回通過

高度履歴

Altitude vs Time

uPlot chart will show altitude changes over time

軌道要素

1 51792U 22017AA 25260.68181834 -.00001200 00000-0 -57312-4 0 9997
2 51792 53.2189 45.7820 0000812 97.2660 262.8424 15.08841518197850
Epoch: Sep 17, 2025 • Age: 21 hours

現在のステータス

高度 546.8 km
速度 7.59 km/s
衛星直下点 -23.32°S, 167.96°W
打ち上げ日 Feb 25, 2022
運用期間 3.5 years
タイプ internet

技術仕様

分類 Payload
質量 297.00 kg
乾燥質量 275.00 kg
総質量 297.00 kg
長さ 0.20 m
直径 2.80 m
スパン 9.00 m
形状 Box + pan
製造者 SPXS
バスタイプ Starlink
フェーズステータス In Orbit
所有者/国 SPXS/US

大規模コンステレーション

Loading constellations...